Regional Weather Roundup
Issued by NWS Charleston, SC

Home | Current Version | Previous Version | Text Only | Print | Product List | Glossary On
Versions: 1 2 3 4 5 6 7 8 9 10 11 12 13 14 15 16 17 18 19 20 21 22 23 24 25 26 27 28 29 30 31 32 33 34 35 36 37 38 39 40 41 42 43 44 45 46 47 48 49 50
000
ASUS42 KCHS 170925
RWRCHS

REGIONAL WEATHER ROUNDUP
NATIONAL WEATHER SERVICE CHARLESTON SC
500 AM EDT THU APR 17 2014

NOTE: "FAIR" INDICATES FEW OR NO CLOUDS BELOW 12,000 FEET WITH NO
SIGNIFICANT WEATHER AND/OR OBSTRUCTIONS TO VISIBILITY.

NOT ALL STATIONS ARE QUALITY CONTROLLED BY THE NATIONAL
WEATHER SERVICE. USE DATA WITH CAUTION...ESPECIALLY
DEWPOINT OBSERVATIONS.

SCZ027-030-031-034>040-042>050-171000-
...SOUTH CAROLINA...

CITY           SKY/WX    TMP DP  RH WIND       PRES   REMARKS
N CHARLESTON   CLEAR     46  38  73 NE9       30.36S
WATERFRONT PRK   N/A     48 N/A N/A N17         N/A
FORT JOHNSON     N/A     48  43  81 NE10G17   30.39F
MOUNT PLEASANT FAIR     N/A N/A N/A NE7       30.35S
JOHNS ISLAND   SUNNY     46  43  87 N8        30.36R
PINOPOLIS        N/A     46  39  76 NE14G23   30.30S
MONCKS CORNER  FAIR      45  37  76 N7        30.38S
SUMMERVILLE    FAIR      43  37  81 NE5       30.38R
BEAUFORT MCAS  CLEAR     49  40  71 E10       30.34R
BEAUFORT ARPT  FAIR      48  45  87 NE18      30.33R
HILTON HEAD IS CLEAR     50  45  81 N12G17    30.33S
GEORGETOWN     NOT AVBL
WALTERBORO     SUNNY     45  41  87 NE6       30.38R
ORANGEBURG     CLEAR     41  36  82 NE7       30.39S
BARNWELL       MIX PCPN  43  37  81 NE6       30.39R
AIKEN          FAIR      37  36  93 CALM      30.42R
MANNING        FAIR      41  41 100 NE5       30.40F
KINGSTREE      NOT AVBL
COLUMBIA       PTCLDY    44  32  62 VRB6      30.42R
SUMTER         CLEAR     36  33  86 NE8       30.41S WCI  30
FLORENCE       CLEAR     37  32  82 NE8       30.43S WCI  31
MYRTLE BEACH   CLEAR     39  30  70 N14       30.39F WCI  31
N MYRTLE BEACH CLEAR     40  31  70 NE12      30.39S WCI  33

$$

GAZ063-065-086>088-099>101-113>116-118-119-134-136>141-150-171000-
...GEORGIA...

CITY           SKY/WX    TMP DP  RH WIND       PRES   REMARKS
SAVANNAH ARPT  CLEAR     47  41  80 N8        30.32S
HUNTER AAF     PTCLDY    51  44  78 N7        30.29R
FORT STEWART   CLOUDY    49  44  83 N13       30.29S
STATESBORO     NOT AVBL
SYLVANIA       CLOUDY    47  41  80 NE6       30.36S
CLAXTON        CLOUDY    50  43  76 NE9       30.34S
THOMSON        PTCLDY    36  36 100 NE3       30.43S
AUGUSTA-BUSH   PTCLDY    39  34  82 N6        30.40R WCI  35
AUGUSTA-DANIEL PTCLDY    45  37  73 NE7       30.39R
SWAINSBORO     FAIR      41  41 100 NE6       30.36S
VIDALIA        CLOUDY    46  41  81 NE13      30.33S
ALMA           CLOUDY    49  41  74 VRB6      30.28F
WAYCROSS       NOT AVBL
JESUP          CLOUDY    50  45  81 NE8       30.29R
BRUNSWICK      CLOUDY    59  54  82 NE13G23   30.26S
SAINT SIMONS   LGT RAIN  60  53  77 NE16G24   30.25S

$$

SCZ027-028-034-036>038-045-046-048>050-GAZ119-141-171000-
...LAKE AND SUPPLEMENTAL COASTAL OBSERVATIONS...

STATION/POSITION TIME  TEMP    WIND        PRES    WAVE   SWELL
                       AIR SEA DIR/SP/G            HT/PER HT/PER/DIR
                 (UTC) (F)     (DEG/KT/KT) (MB)    (FT/S) (FT/S/D)
UPR LAKE MARION  NOT AVBL
WINYAH BAY       0900   43      20/  8     1029.0S
LAKE MURRAY      0800   42      30/  4/  6 1029.5R
ACE BASIN NERRS  0900   47      30/  5     1027.0S
FORT PULASKI     0900   53 60   30/ 17/ 22 1026.3F
SAPELO ISLAND    0800   59      40/ 13     1024.0S

$$

ANZ086-088-AMZ330-350-352-354-374-454-470-171000-
...C-MAN AND BUOY OBSERVATIONS...

STATION/POSITION TIME  TEMP    WIND        PRES    WAVE   SWELL
                       AIR SEA DIR/SP/G            HT/PER HT/PER/DIR
                 (UTC) (F)     (DEG/KT/KT) (MB)    (FT/S) (FT/S/D)
FOLLY BEACH CMAN 0900   50      20/ 16/ 19 1027.9R
BUOY 41004       NOT AVBL
BUOY 41008       0900   60 63   50/ 23/ 29 1023.7F   7/ 6   2/ 70/11
5E ST. MARYS GA  0900      64                N/A     7/ 8   2/ 80/12
FRYING PAN BUOY  0900   54 62   50/ 23/ 27 1026.5F   7/ 6   3/100/ 8
BUOY 41025       NOT AVBL
CAPE LOOKOUT NC  0900   47      10/ 18/ 24 1029.0R
BUOY 41002       NOT AVBL
BUOY 41010       0900   71 76   60/ 17/ 21 1020.4R  10/12   7/ 20/12
BUOY 41012       NOT AVBL
ST AUGUSTINE FL  0900   64     330/  4/  4 1022.2R


$$


USA.gov is the U.S. government's official web portal to all federal, state and local government web resources and services.